Weather History for Norwood, MA

Change the Weather History Date:

Sunday, February 24, 2013

  Actual Average Record
Temperature  
Mean Temperature 36 °F -  
Max Temperature 39 °F 39 °F 42 °F (1997)
Min Temperature 32 °F 21 °F 8 °F (2011)
Degree Days  
Heating Degree Days 30    
Moisture  
Dew Point 34 °F    
Average Humidity 94    
Maximum Humidity 100    
Minimum Humidity 87    
Precipitation  
Precipitation 0.52 in - - ()
Sea Level Pressure  
Sea Level Pressure 29.76 in    
Wind  
Wind Speed 8 mph (North)    
Max Wind Speed 13 mph    
Max Gust Speed 21 mph    
Visibility 2 miles    
Events Rain , Snow    
Averages and records for this station are not official NWS values.
T = Trace of Precipitation, MM = Missing Value Source: NWS Daily Summary

Daily Weather History Graph

Daily Weather History Graph

Search for Another Location

Airport:

Trip Planner

Search our weather history database for the weather conditions in past years. The results will help you decide how hot, cold, wet, or windy it might be!

Date:

Astronomy

Feb. 24, 2013 Rise Set
Actual Time 6:27 AM EST 5:28 PM EST
Civil Twilight 5:59 AM EST 5:57 PM EST
Nautical Twilight 5:26 AM EST 6:29 PM EST
Astronomical Twilight 4:54 AM EST 7:02 PM EST
Moon 4:36 PM EST (2/24) 5:23 AM EST (2/24)
Length of Visible Light 11h 58m
Length of Day
11h 01m
Waxing Gibbous, 99% of the Moon is Illuminated
Feb 24
Waxing Gibbous
Feb 25
Full
Mar 4
Last Quarter
Mar 11
New
Mar 19
First Quarter

Hourly Weather History & Observations

Time (EST) Temp. Windchill Dew Point Humidity Pressure Visibility Wind Dir Wind Speed Gust Speed Precip Events Conditions
12:53 AM 36.0 °F 30.3 °F 36.0 °F 100% 29.88 in 4.0 mi NE 6.9 mph - 0.03 in Rain Light Rain
1:43 AM 37.4 °F 33.8 °F 37.4 °F 100% 29.86 in 2.0 mi NNE 4.6 mph - 0.04 in Rain Light Rain
1:53 AM 37.0 °F 32.4 °F 37.0 °F 100% 29.86 in 3.0 mi NNE 5.8 mph - 0.05 in Rain Light Rain
2:53 AM 37.9 °F 32.7 °F 37.0 °F 97% 29.81 in 3.0 mi NNE 6.9 mph - 0.02 in   Overcast
3:53 AM 39.0 °F 34.0 °F 37.9 °F 96% 29.78 in 2.0 mi NE 6.9 mph 16.1 mph 0.01 in   Overcast
4:02 AM 39.2 °F 32.5 °F 37.4 °F 93% 29.77 in 1.8 mi NNE 10.4 mph - 0.01 in   Overcast
4:20 AM 39.2 °F 34.2 °F 37.4 °F 93% 29.77 in 2.0 mi NNE 6.9 mph 19.6 mph 0.01 in Rain Light Rain
4:43 AM 39.2 °F 33.6 °F 37.4 °F 93% 29.76 in 3.0 mi NNE 8.1 mph - 0.02 in   Overcast
4:53 AM 39.0 °F 31.4 °F 37.9 °F 96% 29.75 in 2.5 mi NNE 12.7 mph 18.4 mph 0.02 in   Overcast
5:16 AM 39.2 °F 33.6 °F 37.4 °F 93% 29.75 in 3.0 mi NE 8.1 mph 17.3 mph 0.01 in Rain Light Rain
5:53 AM 39.0 °F 33.4 °F 37.9 °F 96% 29.77 in 4.0 mi NNE 8.1 mph - 0.02 in Rain Light Rain
6:45 AM 39.2 °F 32.5 °F 37.4 °F 93% 29.75 in 2.5 mi NE 10.4 mph 17.3 mph 0.02 in Rain Light Rain
6:53 AM 39.0 °F 33.4 °F 37.9 °F 96% 29.76 in 2.5 mi NNE 8.1 mph 17.3 mph 0.02 in Rain Light Rain
7:00 AM 39.2 °F 32.5 °F 37.4 °F 93% 29.76 in 3.0 mi NNE 10.4 mph 16.1 mph 0.00 in Rain Light Rain
7:38 AM 39.2 °F 33.0 °F 37.4 °F 93% 29.75 in 2.0 mi North 9.2 mph 18.4 mph 0.00 in Rain Light Rain
7:48 AM 39.2 °F 33.6 °F 37.4 °F 93% 29.75 in 1.8 mi NNE 8.1 mph 17.3 mph 0.01 in Rain Light Rain
7:53 AM 39.0 °F 32.3 °F 37.9 °F 96% 29.75 in 2.0 mi North 10.4 mph - 0.01 in Rain Light Rain
8:14 AM 39.2 °F 32.0 °F 37.4 °F 93% 29.73 in 4.0 mi North 11.5 mph 18.4 mph 0.02 in Rain Light Rain
8:53 AM 39.0 °F 32.3 °F 37.0 °F 93% 29.72 in 6.0 mi NNE 10.4 mph 19.6 mph 0.03 in Rain Light Rain
9:53 AM 39.0 °F 33.4 °F 37.0 °F 93% 29.70 in 3.0 mi North 8.1 mph 18.4 mph 0.02 in Rain Light Rain
10:53 AM 37.9 °F 30.9 °F 36.0 °F 93% 29.70 in 3.0 mi North 10.4 mph 16.1 mph 0.06 in Rain Light Rain
11:02 AM 37.4 °F 30.8 °F 35.6 °F 93% 29.69 in 2.5 mi North 9.2 mph - 0.02 in Rain Light Rain
11:13 AM 37.4 °F 30.8 °F 35.6 °F 93% 29.69 in 3.0 mi North 9.2 mph - 0.02 in Rain Light Rain
11:53 AM 36.0 °F 29.0 °F 34.0 °F 93% 29.70 in 4.0 mi North 9.2 mph 19.6 mph 0.03 in   Overcast
12:26 PM 35.6 °F 29.9 °F 33.8 °F 93% 29.71 in 2.0 mi NNW 6.9 mph - 0.02 in Snow Light Snow
12:35 PM 33.8 °F 25.8 °F 33.8 °F 100% 29.70 in 1.5 mi North 10.4 mph - 0.03 in Snow Light Snow
12:53 PM 34.0 °F 28.0 °F 33.1 °F 96% 29.69 in 1.2 mi North 6.9 mph - 0.05 in Snow Light Snow
1:18 PM 33.8 °F 27.0 °F 33.8 °F 100% 29.68 in 0.8 mi North 8.1 mph - 0.02 in Snow Light Snow
1:36 PM 33.8 °F 24.8 °F 33.8 °F 100% 29.68 in 1.0 mi North 12.7 mph 20.7 mph 0.04 in Snow Light Snow
1:53 PM 35.1 °F 28.6 °F 33.1 °F 92% 29.68 in 1.5 mi NNE 8.1 mph 18.4 mph 0.05 in Snow Light Snow
2:02 PM 35.6 °F 28.0 °F 33.8 °F 93% 29.68 in 2.5 mi North 10.4 mph - 0.00 in Snow Light Snow
2:16 PM 33.8 °F 27.0 °F 33.8 °F 100% 29.68 in 1.5 mi North 8.1 mph - 0.01 in Snow Light Snow
2:28 PM 35.6 °F 30.7 °F 33.8 °F 93% 29.69 in 3.0 mi Variable 5.8 mph - 0.01 in Snow Light Snow
2:53 PM 35.1 °F 26.9 °F 33.1 °F 92% 29.70 in 3.0 mi North 11.5 mph 17.3 mph 0.02 in   Overcast
3:01 PM 35.6 °F 28.0 °F 33.8 °F 93% 29.70 in 2.5 mi NNE 10.4 mph - N/A   Overcast
3:11 PM 35.6 °F 29.2 °F 33.8 °F 93% 29.71 in 4.0 mi North 8.1 mph - 0.00 in   Overcast
3:25 PM 35.6 °F 28.6 °F 33.8 °F 93% 29.71 in 4.0 mi North 9.2 mph - 0.00 in Snow Light Snow
3:53 PM 34.0 °F 28.0 °F 33.1 °F 96% 29.72 in 4.0 mi North 6.9 mph - 0.00 in Snow Light Snow
4:19 PM 33.8 °F 27.0 °F 33.8 °F 100% 29.73 in 3.0 mi NNW 8.1 mph - 0.01 in Snow Light Snow
4:38 PM 33.8 °F 27.0 °F 32.0 °F 93% 29.73 in 2.0 mi North 8.1 mph - 0.01 in Snow Light Snow
4:42 PM 33.8 °F 26.4 °F 32.0 °F 93% 29.73 in 1.8 mi North 9.2 mph - 0.01 in Snow Light Snow
4:53 PM 34.0 °F 28.8 °F 32.0 °F 92% 29.73 in 1.5 mi North 5.8 mph - 0.01 in Snow Light Snow
5:04 PM 33.8 °F 27.0 °F 32.0 °F 93% 29.73 in 1.8 mi North 8.1 mph - 0.00 in Snow Light Snow
5:12 PM 33.8 °F 27.7 °F 32.0 °F 93% 29.74 in 2.0 mi NNW 6.9 mph - 0.00 in Snow Light Snow
5:31 PM 33.8 °F 27.0 °F 32.0 °F 93% 29.75 in 1.8 mi North 8.1 mph - 0.00 in Snow Light Snow
5:33 PM 33.8 °F 27.0 °F 32.0 °F 93% 29.75 in 2.0 mi North 8.1 mph - 0.00 in Snow Light Snow
5:42 PM 33.8 °F 28.6 °F 32.0 °F 93% 29.76 in 3.0 mi NNW 5.8 mph - 0.00 in Snow Light Snow
5:53 PM 33.1 °F 26.9 °F 32.0 °F 96% 29.76 in 2.5 mi North 6.9 mph - 0.00 in Snow Light Snow
6:04 PM 33.8 °F 26.4 °F 32.0 °F 93% 29.76 in 2.0 mi North 9.2 mph - 0.00 in Snow Light Snow
6:15 PM 33.8 °F 25.8 °F 32.0 °F 93% 29.77 in 3.0 mi North 10.4 mph - 0.00 in Snow Light Snow
6:27 PM 33.8 °F 27.7 °F 32.0 °F 93% 29.78 in 2.5 mi NNW 6.9 mph - 0.00 in Snow Light Snow
6:44 PM 33.8 °F 26.4 °F 32.0 °F 93% 29.79 in 1.5 mi North 9.2 mph - 0.00 in Snow Light Snow
6:53 PM 33.1 °F 25.5 °F 32.0 °F 96% 29.79 in 1.5 mi North 9.2 mph - 0.00 in Snow Light Snow
7:06 PM 33.8 °F 27.7 °F 32.0 °F 93% 29.80 in 1.8 mi NNW 6.9 mph - 0.01 in Snow Light Snow
7:37 PM 33.8 °F 25.8 °F 30.2 °F 87% 29.81 in 2.0 mi North 10.4 mph 16.1 mph 0.01 in Snow Light Snow
7:46 PM 33.8 °F 27.7 °F 30.2 °F 87% 29.82 in 2.5 mi North 6.9 mph 16.1 mph 0.01 in Snow Light Snow
7:53 PM 32.0 °F 25.6 °F 30.9 °F 96% 29.82 in 2.5 mi North 6.9 mph - 0.01 in Snow Light Snow
8:26 PM 32.0 °F 25.6 °F 30.2 °F 93% 29.83 in 1.8 mi North 6.9 mph - 0.00 in Snow Light Snow
8:53 PM 32.0 °F 26.4 °F 30.9 °F 96% 29.85 in 1.5 mi North 5.8 mph - 0.01 in Snow Light Snow
9:00 PM 32.0 °F 25.6 °F 30.2 °F 93% 29.85 in 1.2 mi NNW 6.9 mph - 0.00 in Snow Light Snow
9:53 PM 32.0 °F 24.8 °F 30.9 °F 96% 29.86 in 1.2 mi North 8.1 mph - 0.02 in Snow Light Snow
10:23 PM 32.0 °F 28.7 °F 30.2 °F 93% 29.87 in 1.2 mi NNW 3.5 mph - 0.02 in Snow Light Snow
10:45 PM 32.0 °F 27.5 °F 30.2 °F 93% 29.87 in 1.8 mi NNW 4.6 mph - 0.03 in Snow Light Snow
10:53 PM 32.0 °F 27.5 °F 30.9 °F 96% 29.87 in 2.0 mi NNW 4.6 mph - 0.03 in Snow Light Snow
11:17 PM 32.0 °F 27.5 °F 30.2 °F 93% 29.87 in 3.0 mi NNW 4.6 mph - 0.00 in Snow Light Snow
11:49 PM 32.0 °F 26.4 °F 30.2 °F 93% 29.88 in 4.0 mi North 5.8 mph - 0.00 in Snow Light Snow
11:53 PM 32.0 °F 27.5 °F 30.0 °F 92% 29.89 in 4.0 mi NNW 4.6 mph - 0.00 in Snow Light Snow